310  
ASUS45 KBOI 170310  
RWRID  
 
IDAHO REGIONAL WEATHER ROUNDUP  
NATIONAL WEATHER SERVICE BOISE ID  
900 PM MDT SAT OCT 16 2021  
 
NOTE: "FAIR" INDICATES FEW OR NO CLOUDS BELOW 12000 FEET  
WITH NO SIGNIFICANT WEATHER AND/OR S TO VISIBILITY
 
 
IDZ012-014-170400-  
SOUTHWEST IDAHO  
 
 
CITY SKY/WX TMP DP RH WIND PRES REMARKS
 
BOISE CLEAR 56 26 31 S13 30.06S  
CALDWELL CLEAR 63 29 27 E15 30.03F  
MOUNTAIN HOME CLEAR 53 28 38 S8 30.06S  

 
 
IDZ016-017-170400-  
SOUTHCENTRAL IDAHO  
 
 
CITY SKY/WX TMP DP RH WIND PRES REMARKS
 
BURLEY CLEAR 49 31 49 NE7 30.17S  
JEROME CLEAR 54 32 43 E20 30.15F  
TWIN FALLS CLEAR 50 34 54 SE10 30.15F  

 
 
IDZ019>023-170400-  
SOUTHEAST IDAHO  
 
 
CITY SKY/WX TMP DP RH WIND PRES REMARKS
 
IDAHO FALLS CLEAR 38 30 73 N6 30.26F WCI 33  
POCATELLO CLEAR 46 33 60 CALM 30.23F  
REXBURG CLEAR 44 34 67 E5 30.27F  

 
 
IDZ006-010-011-018-031-032-170400-  
CENTRAL IDAHO MOUNTAINS  
 
 
CITY SKY/WX TMP DP RH WIND PRES REMARKS
 
MCCALL CLEAR 44 29 55 CALM 30.11F  
HAILEY CLEAR 41 30 65 W7 30.26S  
STANLEY N/A 37 28 70 SE6 30.23S WCI 32  
SALMON CLEAR 45 30 55 S3 30.16S  
CHALLIS CLEAR 44 33 65 VRB3 30.20R  

 
 
IDZ002-004-006-007-026-170400-  
NORTHERN IDAHO  
 
 
CITY SKY/WX TMP DP RH WIND PRES REMARKS
 
LEWISTON CLEAR 62 28 27 SE5 29.90S  
LOWELL N/A 48 47 96 CALM 30.01S  
COEUR D'ALENE CLEAR 46 40 79 E6 29.95F  
MULLAN PASS CLEAR 48 24 39 VRB3 30.09F  

 
 
 
CLICK HERE TO GO TO PREVIOUS BULLETINS.

The Nexlab ID Page Main Text Page